Year,Month,Day,Hour,Minute,Value (Times are PST for temperature in C)
2015,06,07,00,00,20.90
2015,06,07,00,01,20.80
2015,06,07,00,02,20.80
2015,06,07,00,03,20.80
2015,06,07,00,04,20.70
2015,06,07,00,05,20.70
2015,06,07,00,06,20.70
2015,06,07,00,07,20.60
2015,06,07,00,08,20.60
2015,06,07,00,09,20.60
2015,06,07,00,10,20.60
2015,06,07,00,11,20.50
2015,06,07,00,12,20.50
2015,06,07,00,13,20.50
2015,06,07,00,14,20.50
2015,06,07,00,15,20.50
2015,06,07,00,16,20.50
2015,06,07,00,17,20.50
2015,06,07,00,18,20.50
2015,06,07,00,19,20.50
2015,06,07,00,20,20.50
2015,06,07,00,21,20.50
2015,06,07,00,22,20.50
2015,06,07,00,23,20.50
2015,06,07,00,24,20.50
2015,06,07,00,25,20.50
2015,06,07,00,26,20.40
2015,06,07,00,27,20.40
2015,06,07,00,28,20.40
2015,06,07,00,29,20.40
2015,06,07,00,30,20.30
2015,06,07,00,31,20.30
2015,06,07,00,32,20.30
2015,06,07,00,33,20.20
2015,06,07,00,34,20.20
2015,06,07,00,35,20.20
2015,06,07,00,36,20.10
2015,06,07,00,37,20.10
2015,06,07,00,38,20.00
2015,06,07,00,39,20.00
2015,06,07,00,40,19.90
2015,06,07,00,41,19.90
2015,06,07,00,42,19.90
2015,06,07,00,43,19.80
2015,06,07,00,44,19.80
2015,06,07,00,45,19.80
2015,06,07,00,46,19.80
2015,06,07,00,47,19.70
2015,06,07,00,48,19.70
2015,06,07,00,49,19.70
2015,06,07,00,50,19.70
2015,06,07,00,51,19.70
2015,06,07,00,52,19.70
2015,06,07,00,53,19.70
2015,06,07,00,54,19.60
2015,06,07,00,55,19.60
2015,06,07,00,56,19.60
2015,06,07,00,57,19.60
2015,06,07,00,58,19.60
2015,06,07,00,59,19.60
2015,06,07,01,00,19.60
2015,06,07,01,01,19.50
2015,06,07,01,02,19.50
2015,06,07,01,03,19.50
2015,06,07,01,04,19.50
2015,06,07,01,05,19.40
2015,06,07,01,06,19.40
2015,06,07,01,07,19.40
2015,06,07,01,08,19.40
2015,06,07,01,09,19.40
2015,06,07,01,10,19.40
2015,06,07,01,11,19.30
2015,06,07,01,12,19.30
2015,06,07,01,13,19.30
2015,06,07,01,14,19.30
2015,06,07,01,15,19.30
2015,06,07,01,16,19.30
2015,06,07,01,17,19.30
2015,06,07,01,18,19.30
2015,06,07,01,19,19.30
2015,06,07,01,20,19.30
2015,06,07,01,21,19.30
2015,06,07,01,22,19.30
2015,06,07,01,23,19.30
2015,06,07,01,24,19.30
2015,06,07,01,25,19.30
2015,06,07,01,26,19.20
2015,06,07,01,27,19.20
2015,06,07,01,28,19.20
2015,06,07,01,29,19.20
2015,06,07,01,30,19.20
2015,06,07,01,31,19.20
2015,06,07,01,32,19.10
2015,06,07,01,33,19.10
2015,06,07,01,34,19.10
2015,06,07,01,35,19.10
2015,06,07,01,36,19.10
2015,06,07,01,37,19.00
2015,06,07,01,38,19.00
2015,06,07,01,39,19.00
2015,06,07,01,40,18.90
2015,06,07,01,41,18.90
2015,06,07,01,42,18.90
2015,06,07,01,43,18.90
2015,06,07,01,44,18.90
2015,06,07,01,45,18.90
2015,06,07,01,46,18.80
2015,06,07,01,47,18.80
2015,06,07,01,48,18.80
2015,06,07,01,49,18.80
2015,06,07,01,50,18.80
2015,06,07,01,51,18.80
2015,06,07,01,52,18.80
2015,06,07,01,53,18.80
2015,06,07,01,54,18.80
2015,06,07,01,55,18.80
2015,06,07,01,56,18.80
2015,06,07,01,57,18.80
2015,06,07,01,58,18.80
2015,06,07,01,59,18.80
2015,06,07,02,00,18.90
2015,06,07,02,01,18.90
2015,06,07,02,02,18.90
2015,06,07,02,03,18.90
2015,06,07,02,04,18.90
2015,06,07,02,05,18.90
2015,06,07,02,06,18.90
2015,06,07,02,07,18.90
2015,06,07,02,08,18.90
2015,06,07,02,09,18.90
2015,06,07,02,10,18.90
2015,06,07,02,11,18.90
2015,06,07,02,12,18.90
2015,06,07,02,13,18.80
2015,06,07,02,14,18.80
2015,06,07,02,15,18.80
2015,06,07,02,16,18.80
2015,06,07,02,17,18.70
2015,06,07,02,18,18.70
2015,06,07,02,19,18.70
2015,06,07,02,20,18.60
2015,06,07,02,21,18.50
2015,06,07,02,22,18.50
2015,06,07,02,23,18.40
2015,06,07,02,24,18.40
2015,06,07,02,25,18.30
2015,06,07,02,26,18.30
2015,06,07,02,27,18.30
2015,06,07,02,28,18.20
2015,06,07,02,29,18.20
2015,06,07,02,30,18.20
2015,06,07,02,31,18.20
2015,06,07,02,32,18.10
2015,06,07,02,33,18.10
2015,06,07,02,34,18.10
2015,06,07,02,35,18.00
2015,06,07,02,36,18.00
2015,06,07,02,37,18.00
2015,06,07,02,38,17.90
2015,06,07,02,39,17.90
2015,06,07,02,40,17.90
2015,06,07,02,41,17.90
2015,06,07,02,42,17.80
2015,06,07,02,43,17.80
2015,06,07,02,44,17.80
2015,06,07,02,45,17.80
2015,06,07,02,46,17.80
2015,06,07,02,47,17.80
2015,06,07,02,48,17.70
2015,06,07,02,49,17.70
2015,06,07,02,50,17.70
2015,06,07,02,51,17.70
2015,06,07,02,52,17.70
2015,06,07,02,53,17.60
2015,06,07,02,54,17.60
2015,06,07,02,55,17.60
2015,06,07,02,56,17.60
2015,06,07,02,57,17.60
2015,06,07,02,58,17.60
2015,06,07,02,59,17.60
2015,06,07,03,00,17.60
2015,06,07,03,01,17.50
2015,06,07,03,02,17.50
2015,06,07,03,03,17.50
2015,06,07,03,04,17.50
2015,06,07,03,05,17.50
2015,06,07,03,06,17.50
2015,06,07,03,07,17.40
2015,06,07,03,08,17.40
2015,06,07,03,09,17.40
2015,06,07,03,10,17.40
2015,06,07,03,11,17.40
2015,06,07,03,12,17.40
2015,06,07,03,13,17.40
2015,06,07,03,14,17.40
2015,06,07,03,15,17.40
2015,06,07,03,16,17.40
2015,06,07,03,17,17.40
2015,06,07,03,18,17.40
2015,06,07,03,19,17.40
2015,06,07,03,20,17.50
2015,06,07,03,21,17.50
2015,06,07,03,22,17.50
2015,06,07,03,23,17.60
2015,06,07,03,24,17.60
2015,06,07,03,25,17.60
2015,06,07,03,26,17.60
2015,06,07,03,27,17.60
2015,06,07,03,28,17.70
2015,06,07,03,29,17.70
2015,06,07,03,30,17.70
2015,06,07,03,31,17.70
2015,06,07,03,32,17.70
2015,06,07,03,33,17.70
2015,06,07,03,34,17.70
2015,06,07,03,35,17.70
2015,06,07,03,36,17.70
2015,06,07,03,37,17.70
2015,06,07,03,38,17.70
2015,06,07,03,39,17.70
2015,06,07,03,40,17.70
2015,06,07,03,41,17.60
2015,06,07,03,42,17.60
2015,06,07,03,43,17.60
2015,06,07,03,44,17.60
2015,06,07,03,45,17.60
2015,06,07,03,46,17.60
2015,06,07,03,47,17.60
2015,06,07,03,48,17.50
2015,06,07,03,49,17.50
2015,06,07,03,50,17.50
2015,06,07,03,51,17.50
2015,06,07,03,52,17.50
2015,06,07,03,53,17.50
2015,06,07,03,54,17.50
2015,06,07,03,55,17.50
2015,06,07,03,56,17.50
2015,06,07,03,57,17.50
2015,06,07,03,58,17.50
2015,06,07,03,59,17.50
2015,06,07,04,00,17.50
2015,06,07,04,01,17.50
2015,06,07,04,02,17.50
2015,06,07,04,03,17.50
2015,06,07,04,04,17.50
2015,06,07,04,05,17.50
2015,06,07,04,06,17.50
2015,06,07,04,07,17.50
2015,06,07,04,08,17.50
2015,06,07,04,09,17.50
2015,06,07,04,10,17.50
2015,06,07,04,11,17.50
2015,06,07,04,12,17.50
2015,06,07,04,13,17.60
2015,06,07,04,14,17.60
2015,06,07,04,15,17.60
2015,06,07,04,16,17.60
2015,06,07,04,17,17.60
2015,06,07,04,18,17.60
2015,06,07,04,19,17.60
2015,06,07,04,20,17.60
2015,06,07,04,21,17.60
2015,06,07,04,22,17.60
2015,06,07,04,23,17.60
2015,06,07,04,24,17.60
2015,06,07,04,25,17.70
2015,06,07,04,26,17.70
2015,06,07,04,27,17.70
2015,06,07,04,28,17.70
2015,06,07,04,29,17.70
2015,06,07,04,30,17.70
2015,06,07,04,31,17.70
2015,06,07,04,32,17.70
2015,06,07,04,33,17.70
2015,06,07,04,34,17.60
2015,06,07,04,35,17.60
2015,06,07,04,36,17.60
2015,06,07,04,37,17.60
2015,06,07,04,38,17.60
2015,06,07,04,39,17.60
2015,06,07,04,40,17.60
2015,06,07,04,41,17.60
2015,06,07,04,42,17.60
2015,06,07,04,43,17.60
2015,06,07,04,44,17.60
2015,06,07,04,45,17.60
2015,06,07,04,46,17.60
2015,06,07,04,47,17.60
2015,06,07,04,48,17.60
2015,06,07,04,49,17.60
2015,06,07,04,50,17.60
2015,06,07,04,51,17.60
2015,06,07,04,52,17.50
2015,06,07,04,53,17.50
2015,06,07,04,54,17.50
2015,06,07,04,55,17.50
2015,06,07,04,56,17.40
2015,06,07,04,57,17.40
2015,06,07,04,58,17.40
2015,06,07,04,59,17.40
2015,06,07,05,00,17.40
2015,06,07,05,01,17.30
2015,06,07,05,02,17.30
2015,06,07,05,03,17.30
2015,06,07,05,04,17.30
2015,06,07,05,05,17.20
2015,06,07,05,06,17.20
2015,06,07,05,07,17.10
2015,06,07,05,08,17.10
2015,06,07,05,09,17.10
2015,06,07,05,10,17.00
2015,06,07,05,11,17.00
2015,06,07,05,12,17.00
2015,06,07,05,13,16.90
2015,06,07,05,14,16.90
2015,06,07,05,15,16.90
2015,06,07,05,16,16.90
2015,06,07,05,17,16.90
2015,06,07,05,18,16.90
2015,06,07,05,19,16.90
2015,06,07,05,20,16.90
2015,06,07,05,21,16.90
2015,06,07,05,22,16.90
2015,06,07,05,23,16.90
2015,06,07,05,24,16.90
2015,06,07,05,25,17.00
2015,06,07,05,26,17.00
2015,06,07,05,27,17.00
2015,06,07,05,28,17.00
2015,06,07,05,29,17.00
2015,06,07,05,30,17.00
2015,06,07,05,31,17.00
2015,06,07,05,32,17.00
2015,06,07,05,33,17.00
2015,06,07,05,34,17.00
2015,06,07,05,35,17.00
2015,06,07,05,36,17.00
2015,06,07,05,37,17.00
2015,06,07,05,38,17.00
2015,06,07,05,39,17.00
2015,06,07,05,40,17.00
2015,06,07,05,41,17.00
2015,06,07,05,42,17.00
2015,06,07,05,43,17.00
2015,06,07,05,44,17.00
2015,06,07,05,45,16.90
2015,06,07,05,46,16.90
2015,06,07,05,47,16.90
2015,06,07,05,48,16.90
2015,06,07,05,49,16.80
2015,06,07,05,50,16.80
2015,06,07,05,51,16.80
2015,06,07,05,52,16.80
2015,06,07,05,53,16.70
2015,06,07,05,54,16.70
2015,06,07,05,55,16.70
2015,06,07,05,56,16.70
2015,06,07,05,57,16.60
2015,06,07,05,58,16.60
2015,06,07,05,59,16.60
2015,06,07,06,00,16.60
2015,06,07,06,01,16.50
2015,06,07,06,02,16.50
2015,06,07,06,03,16.50
2015,06,07,06,04,16.40
2015,06,07,06,05,16.40
2015,06,07,06,06,16.40
2015,06,07,06,07,16.40
2015,06,07,06,08,16.40
2015,06,07,06,09,16.30
2015,06,07,06,10,16.30
2015,06,07,06,11,16.30
2015,06,07,06,12,16.30
2015,06,07,06,13,16.30
2015,06,07,06,14,16.30
2015,06,07,06,15,16.20
2015,06,07,06,16,16.20
2015,06,07,06,17,16.20
2015,06,07,06,18,16.20
2015,06,07,06,19,16.20
2015,06,07,06,20,16.20
2015,06,07,06,21,16.20
2015,06,07,06,22,16.20
2015,06,07,06,23,16.20
2015,06,07,06,24,16.20
2015,06,07,06,25,16.20
2015,06,07,06,26,16.20
2015,06,07,06,27,16.20
2015,06,07,06,28,16.20
2015,06,07,06,29,16.20
2015,06,07,06,30,16.20
2015,06,07,06,31,16.20
2015,06,07,06,32,16.20
2015,06,07,06,33,16.20
2015,06,07,06,34,16.20
2015,06,07,06,35,16.20
2015,06,07,06,36,16.20
2015,06,07,06,37,16.20
2015,06,07,06,38,16.30
2015,06,07,06,39,16.30
2015,06,07,06,40,16.30
2015,06,07,06,41,16.20
2015,06,07,06,42,16.30
2015,06,07,06,43,16.30
2015,06,07,06,44,16.30
2015,06,07,06,45,16.30
2015,06,07,06,46,16.30
2015,06,07,06,47,16.30
2015,06,07,06,48,16.40
2015,06,07,06,49,16.40
2015,06,07,06,50,16.40
2015,06,07,06,51,16.40
2015,06,07,06,52,16.40
2015,06,07,06,53,16.40
2015,06,07,06,54,16.40
2015,06,07,06,55,16.40
2015,06,07,06,56,16.40
2015,06,07,06,57,16.40
2015,06,07,06,58,16.40
2015,06,07,06,59,16.40
2015,06,07,07,00,16.40
2015,06,07,07,01,16.50
2015,06,07,07,02,16.40
2015,06,07,07,03,16.40
2015,06,07,07,04,16.40
2015,06,07,07,05,16.40
2015,06,07,07,06,16.40
2015,06,07,07,07,16.40
2015,06,07,07,08,16.40
2015,06,07,07,09,16.40
2015,06,07,07,10,16.50
2015,06,07,07,11,16.50
2015,06,07,07,12,16.50
2015,06,07,07,13,16.60
2015,06,07,07,14,16.60
2015,06,07,07,15,16.60
2015,06,07,07,16,16.60
2015,06,07,07,17,16.70
2015,06,07,07,18,16.70
2015,06,07,07,19,16.70
2015,06,07,07,20,16.80
2015,06,07,07,21,16.80
2015,06,07,07,22,16.90
2015,06,07,07,23,17.00
2015,06,07,07,24,17.10
2015,06,07,07,25,17.10
2015,06,07,07,26,17.20
2015,06,07,07,27,17.20
2015,06,07,07,28,17.30
2015,06,07,07,29,17.30
2015,06,07,07,30,17.30
2015,06,07,07,31,17.30
2015,06,07,07,32,17.40
2015,06,07,07,33,17.40
2015,06,07,07,34,17.40
2015,06,07,07,35,17.40
2015,06,07,07,36,17.40
2015,06,07,07,37,17.50
2015,06,07,07,38,17.50
2015,06,07,07,39,17.50
2015,06,07,07,40,17.50
2015,06,07,07,41,17.60
2015,06,07,07,42,17.60
2015,06,07,07,43,17.60
2015,06,07,07,44,17.60
2015,06,07,07,45,17.60
2015,06,07,07,46,17.60
2015,06,07,07,47,17.60
2015,06,07,07,48,17.60
2015,06,07,07,49,17.60
2015,06,07,07,50,17.70
2015,06,07,07,51,17.70
2015,06,07,07,52,17.70
2015,06,07,07,53,17.70
2015,06,07,07,54,17.80
2015,06,07,07,55,17.80
2015,06,07,07,56,17.80
2015,06,07,07,57,17.90
2015,06,07,07,58,17.90
2015,06,07,07,59,17.90
2015,06,07,08,00,18.00
2015,06,07,08,01,18.00
2015,06,07,08,02,18.10
2015,06,07,08,03,18.10
2015,06,07,08,04,18.10
2015,06,07,08,05,18.20
2015,06,07,08,06,18.20
2015,06,07,08,07,18.20
2015,06,07,08,08,18.30
2015,06,07,08,09,18.30
2015,06,07,08,10,18.40
2015,06,07,08,11,18.40
2015,06,07,08,12,18.40
2015,06,07,08,13,18.50
2015,06,07,08,14,18.50
2015,06,07,08,15,18.60
2015,06,07,08,16,18.60
2015,06,07,08,17,18.70
2015,06,07,08,18,18.70
2015,06,07,08,19,18.70
2015,06,07,08,20,18.80
2015,06,07,08,21,18.80
2015,06,07,08,22,18.80
2015,06,07,08,23,18.90
2015,06,07,08,24,18.90
2015,06,07,08,25,19.00
2015,06,07,08,26,19.00
2015,06,07,08,27,19.00
2015,06,07,08,28,19.10
2015,06,07,08,29,19.10
2015,06,07,08,30,19.10
2015,06,07,08,31,19.10
2015,06,07,08,32,19.10
2015,06,07,08,33,19.20
2015,06,07,08,34,19.20
2015,06,07,08,35,19.20
2015,06,07,08,36,19.20
2015,06,07,08,37,19.20
2015,06,07,08,38,19.20
2015,06,07,08,39,19.20
2015,06,07,08,40,19.20
2015,06,07,08,41,19.30
2015,06,07,08,42,19.30
2015,06,07,08,43,19.40
2015,06,07,08,44,19.40
2015,06,07,08,45,19.40
2015,06,07,08,46,19.40
2015,06,07,08,47,19.40
2015,06,07,08,48,19.40
2015,06,07,08,49,19.40
2015,06,07,08,50,19.40
2015,06,07,08,51,19.40
2015,06,07,08,52,19.50
2015,06,07,08,53,19.50
2015,06,07,08,54,19.50
2015,06,07,08,55,19.50
2015,06,07,08,56,19.60
2015,06,07,08,57,19.60
2015,06,07,08,58,19.60
2015,06,07,08,59,19.70
2015,06,07,09,00,19.70
2015,06,07,09,01,19.70
2015,06,07,09,02,19.70
2015,06,07,09,03,19.80
2015,06,07,09,04,19.80
2015,06,07,09,05,19.80
2015,06,07,09,06,19.90
2015,06,07,09,07,19.90
2015,06,07,09,08,20.00
2015,06,07,09,09,20.10
2015,06,07,09,10,20.10
2015,06,07,09,11,20.20
2015,06,07,09,12,20.30
2015,06,07,09,13,20.40
2015,06,07,09,14,20.50
2015,06,07,09,15,20.60
2015,06,07,09,16,20.70
2015,06,07,09,17,20.80
2015,06,07,09,18,20.80
2015,06,07,09,19,20.90
2015,06,07,09,20,20.90
2015,06,07,09,21,21.00
2015,06,07,09,22,20.90
2015,06,07,09,23,20.90
2015,06,07,09,24,20.90
2015,06,07,09,25,20.90
2015,06,07,09,26,20.90
2015,06,07,09,27,20.90
2015,06,07,09,28,20.90
2015,06,07,09,29,21.00
2015,06,07,09,30,21.00
2015,06,07,09,31,21.10
2015,06,07,09,32,21.20
2015,06,07,09,33,21.30
2015,06,07,09,34,21.30
2015,06,07,09,35,21.40
2015,06,07,09,36,21.50
2015,06,07,09,37,21.60
2015,06,07,09,38,21.70
2015,06,07,09,39,21.70
2015,06,07,09,40,21.70
2015,06,07,09,41,21.80
2015,06,07,09,42,21.80
2015,06,07,09,43,21.80
2015,06,07,09,44,21.80
2015,06,07,09,45,21.80
2015,06,07,09,46,21.90
2015,06,07,09,47,21.90
2015,06,07,09,48,22.00
2015,06,07,09,49,22.10
2015,06,07,09,50,22.10
2015,06,07,09,51,22.10
2015,06,07,09,52,22.20
2015,06,07,09,53,22.20
2015,06,07,09,54,22.20
2015,06,07,09,55,22.30
2015,06,07,09,56,22.40
2015,06,07,09,57,22.40
2015,06,07,09,58,22.50
2015,06,07,09,59,22.60
2015,06,07,10,00,22.70
2015,06,07,10,01,22.70
2015,06,07,10,02,22.70
2015,06,07,10,03,22.60
2015,06,07,10,04,22.50
2015,06,07,10,05,22.50
2015,06,07,10,06,22.50
2015,06,07,10,07,22.60
2015,06,07,10,08,22.60
2015,06,07,10,09,22.70
2015,06,07,10,10,22.70
2015,06,07,10,11,22.70
2015,06,07,10,12,22.70
2015,06,07,10,13,22.70
2015,06,07,10,14,22.80
2015,06,07,10,15,22.80
2015,06,07,10,16,22.90
2015,06,07,10,17,22.90
2015,06,07,10,18,23.00
2015,06,07,10,19,23.10
2015,06,07,10,20,23.10
2015,06,07,10,21,23.10
2015,06,07,10,22,23.10
2015,06,07,10,23,23.10
2015,06,07,10,24,23.20
2015,06,07,10,25,23.20
2015,06,07,10,26,23.20
2015,06,07,10,27,23.20
2015,06,07,10,28,23.30
2015,06,07,10,29,23.30
2015,06,07,10,30,23.30
2015,06,07,10,31,23.30
2015,06,07,10,32,23.30
2015,06,07,10,33,23.20
2015,06,07,10,34,23.20
2015,06,07,10,35,23.10
2015,06,07,10,36,23.10
2015,06,07,10,37,23.10
2015,06,07,10,38,23.10
2015,06,07,10,39,23.10
2015,06,07,10,40,23.20
2015,06,07,10,41,23.20
2015,06,07,10,42,23.20
2015,06,07,10,43,23.20
2015,06,07,10,44,23.20
2015,06,07,10,45,23.20
2015,06,07,10,46,23.20
2015,06,07,10,47,23.10
2015,06,07,10,48,23.10
2015,06,07,10,49,23.10
2015,06,07,10,50,23.10
2015,06,07,10,51,23.10
2015,06,07,10,52,23.10
2015,06,07,10,53,23.00
2015,06,07,10,54,23.00
2015,06,07,10,55,23.00
2015,06,07,10,56,23.00
2015,06,07,10,57,23.00
2015,06,07,10,58,23.00
2015,06,07,10,59,23.10
2015,06,07,11,00,23.10
2015,06,07,11,01,23.10
2015,06,07,11,02,23.20
2015,06,07,11,03,23.20
2015,06,07,11,04,23.20
2015,06,07,11,05,23.30
2015,06,07,11,06,23.30
2015,06,07,11,07,23.40
2015,06,07,11,08,23.50
2015,06,07,11,09,23.50
2015,06,07,11,10,23.60
2015,06,07,11,11,23.60
2015,06,07,11,12,23.60
2015,06,07,11,13,23.60
2015,06,07,11,14,23.60
2015,06,07,11,15,23.60
2015,06,07,11,16,23.60
2015,06,07,11,17,23.50
2015,06,07,11,18,23.50
2015,06,07,11,19,23.50
2015,06,07,11,20,23.60
2015,06,07,11,21,23.60
2015,06,07,11,22,23.60
2015,06,07,11,23,23.70
2015,06,07,11,24,23.70
2015,06,07,11,25,23.70
2015,06,07,11,26,23.70
2015,06,07,11,27,23.80
2015,06,07,11,28,23.80
2015,06,07,11,29,23.90
2015,06,07,11,30,23.90
2015,06,07,11,31,23.90
2015,06,07,11,32,23.90
2015,06,07,11,33,23.90
2015,06,07,11,34,24.00
2015,06,07,11,35,24.10
2015,06,07,11,36,24.10
2015,06,07,11,37,24.10
2015,06,07,11,38,24.10
2015,06,07,11,39,24.20
2015,06,07,11,40,24.20
2015,06,07,11,41,24.20
2015,06,07,11,42,24.20
2015,06,07,11,43,24.20
2015,06,07,11,44,24.30
2015,06,07,11,45,24.20
2015,06,07,11,46,24.10
2015,06,07,11,47,24.00
2015,06,07,11,48,24.00
2015,06,07,11,49,23.90
2015,06,07,11,50,23.90
2015,06,07,11,51,23.90
2015,06,07,11,52,23.90
2015,06,07,11,53,23.90
2015,06,07,11,54,24.00
2015,06,07,11,55,24.10
2015,06,07,11,56,24.20
2015,06,07,11,57,24.20
2015,06,07,11,58,24.20
2015,06,07,11,59,24.20
2015,06,07,12,00,24.20
2015,06,07,12,01,24.20
2015,06,07,12,02,24.10
2015,06,07,12,03,24.10
2015,06,07,12,04,24.00
2015,06,07,12,05,24.00
2015,06,07,12,06,23.90
2015,06,07,12,07,23.90
2015,06,07,12,08,23.80
2015,06,07,12,09,23.90
2015,06,07,12,10,23.90
2015,06,07,12,11,23.90
2015,06,07,12,12,23.90
2015,06,07,12,13,23.90
2015,06,07,12,14,24.00
2015,06,07,12,15,24.00
2015,06,07,12,16,24.00
2015,06,07,12,17,24.00
2015,06,07,12,18,24.00
2015,06,07,12,19,24.10
2015,06,07,12,20,24.10
2015,06,07,12,21,24.20
2015,06,07,12,22,24.30
2015,06,07,12,23,24.40
2015,06,07,12,24,24.50
2015,06,07,12,25,24.60
2015,06,07,12,26,24.60
2015,06,07,12,27,24.60
2015,06,07,12,28,24.70
2015,06,07,12,29,24.70
2015,06,07,12,30,24.70
2015,06,07,12,31,24.70
2015,06,07,12,32,24.70
2015,06,07,12,33,24.70
2015,06,07,12,34,24.70
2015,06,07,12,35,24.60
2015,06,07,12,36,24.60
2015,06,07,12,37,24.50
2015,06,07,12,38,24.30
2015,06,07,12,39,24.20
2015,06,07,12,40,24.20
2015,06,07,12,41,24.20
2015,06,07,12,42,24.20
2015,06,07,12,43,24.20
2015,06,07,12,44,24.20
2015,06,07,12,45,24.30
2015,06,07,12,46,24.30
2015,06,07,12,47,24.20
2015,06,07,12,48,24.20
2015,06,07,12,49,24.20
2015,06,07,12,50,24.20
2015,06,07,12,51,24.20
2015,06,07,12,52,24.20
2015,06,07,12,53,24.20
2015,06,07,12,54,24.30
2015,06,07,12,55,24.30
2015,06,07,12,56,24.30
2015,06,07,12,57,24.40
2015,06,07,12,58,24.40
2015,06,07,12,59,24.50
2015,06,07,13,00,24.60
2015,06,07,13,01,24.70
2015,06,07,13,02,24.70
2015,06,07,13,03,24.80
2015,06,07,13,04,24.80
2015,06,07,13,05,24.80
2015,06,07,13,06,24.80
2015,06,07,13,07,24.90
2015,06,07,13,08,24.90
2015,06,07,13,09,25.00
2015,06,07,13,10,25.00
2015,06,07,13,11,25.10
2015,06,07,13,12,25.10
2015,06,07,13,13,25.20
2015,06,07,13,14,25.30
2015,06,07,13,15,25.30
2015,06,07,13,16,25.30
2015,06,07,13,17,25.30
2015,06,07,13,18,25.30
2015,06,07,13,19,25.30
2015,06,07,13,20,25.30
2015,06,07,13,21,25.20
2015,06,07,13,22,25.20
2015,06,07,13,23,25.20
2015,06,07,13,24,25.20
2015,06,07,13,25,25.10
2015,06,07,13,26,25.20
2015,06,07,13,27,25.20
2015,06,07,13,28,25.20
2015,06,07,13,29,25.20
2015,06,07,13,30,25.20
2015,06,07,13,31,25.20
2015,06,07,13,32,25.10
2015,06,07,13,33,25.10
2015,06,07,13,34,25.10
2015,06,07,13,35,25.10
2015,06,07,13,36,25.10
2015,06,07,13,37,25.10
2015,06,07,13,38,25.20
2015,06,07,13,39,25.30
2015,06,07,13,40,25.30
2015,06,07,13,41,25.30
2015,06,07,13,42,25.30
2015,06,07,13,43,25.20
2015,06,07,13,44,25.20
2015,06,07,13,45,25.10
2015,06,07,13,46,25.10
2015,06,07,13,47,25.20
2015,06,07,13,48,25.30
2015,06,07,13,49,25.30
2015,06,07,13,50,25.30
2015,06,07,13,51,25.30
2015,06,07,13,52,25.20
2015,06,07,13,53,25.20
2015,06,07,13,54,25.20
2015,06,07,13,55,25.20
2015,06,07,13,56,25.20
2015,06,07,13,57,25.20
2015,06,07,13,58,25.10
2015,06,07,13,59,25.10
2015,06,07,14,00,25.00
2015,06,07,14,01,25.00
2015,06,07,14,02,25.00
2015,06,07,14,03,25.10
2015,06,07,14,04,25.10
2015,06,07,14,05,25.20
2015,06,07,14,06,25.20
2015,06,07,14,07,25.30
2015,06,07,14,08,25.40
2015,06,07,14,09,25.50
2015,06,07,14,10,25.60
2015,06,07,14,11,25.60
2015,06,07,14,12,25.60
2015,06,07,14,13,25.60
2015,06,07,14,14,25.60
2015,06,07,14,15,25.60
2015,06,07,14,16,25.60
2015,06,07,14,17,25.60
2015,06,07,14,18,25.50
2015,06,07,14,19,25.40
2015,06,07,14,20,25.40
2015,06,07,14,21,25.40
2015,06,07,14,22,25.40
2015,06,07,14,23,25.50
2015,06,07,14,24,25.60
2015,06,07,14,25,25.70
2015,06,07,14,26,25.80
2015,06,07,14,27,26.00
2015,06,07,14,28,26.10
2015,06,07,14,29,26.10
2015,06,07,14,30,26.20
2015,06,07,14,31,26.30
2015,06,07,14,32,26.50
2015,06,07,14,33,26.60
2015,06,07,14,34,26.70
2015,06,07,14,35,26.80
2015,06,07,14,36,26.70
2015,06,07,14,37,26.70
2015,06,07,14,38,26.70
2015,06,07,14,39,26.80
2015,06,07,14,40,26.80
2015,06,07,14,41,26.90
2015,06,07,14,42,27.00
2015,06,07,14,43,26.90
2015,06,07,14,44,27.00
2015,06,07,14,45,27.00
2015,06,07,14,46,27.10
2015,06,07,14,47,27.20
2015,06,07,14,48,27.30
2015,06,07,14,49,27.40
2015,06,07,14,50,27.50
2015,06,07,14,51,27.60
2015,06,07,14,52,27.70
2015,06,07,14,53,27.70
2015,06,07,14,54,27.80
2015,06,07,14,55,27.70
2015,06,07,14,56,27.70
2015,06,07,14,57,27.80
2015,06,07,14,58,27.80
2015,06,07,14,59,27.80
2015,06,07,15,00,27.80
2015,06,07,15,01,27.70
2015,06,07,15,02,27.60
2015,06,07,15,03,27.60
2015,06,07,15,04,27.60
2015,06,07,15,05,27.60
2015,06,07,15,06,27.60
2015,06,07,15,07,27.70
2015,06,07,15,08,27.70
2015,06,07,15,09,27.80
2015,06,07,15,10,27.80
2015,06,07,15,11,27.80
2015,06,07,15,12,27.80
2015,06,07,15,13,27.80
2015,06,07,15,14,27.70
2015,06,07,15,15,27.70
2015,06,07,15,16,27.60
2015,06,07,15,17,27.60
2015,06,07,15,18,27.50
2015,06,07,15,19,27.50
2015,06,07,15,20,27.50
2015,06,07,15,21,27.60
2015,06,07,15,22,27.60
2015,06,07,15,23,27.50
2015,06,07,15,24,27.40
2015,06,07,15,25,27.50
2015,06,07,15,26,27.50
2015,06,07,15,27,27.50
2015,06,07,15,28,27.50
2015,06,07,15,29,27.50
2015,06,07,15,30,27.60
2015,06,07,15,31,27.60
2015,06,07,15,32,27.50
2015,06,07,15,33,27.40
2015,06,07,15,34,27.40
2015,06,07,15,35,27.40
2015,06,07,15,36,27.50
2015,06,07,15,37,27.50
2015,06,07,15,38,27.60
2015,06,07,15,39,27.60
2015,06,07,15,40,27.60
2015,06,07,15,41,27.50
2015,06,07,15,42,27.50
2015,06,07,15,43,27.50
2015,06,07,15,44,27.60
2015,06,07,15,45,27.60
2015,06,07,15,46,27.60
2015,06,07,15,47,27.60
2015,06,07,15,48,27.60
2015,06,07,15,49,27.70
2015,06,07,15,50,27.60
2015,06,07,15,51,27.50
2015,06,07,15,52,27.40
2015,06,07,15,53,27.30
2015,06,07,15,54,27.20
2015,06,07,15,55,27.20
2015,06,07,15,56,27.20
2015,06,07,15,57,27.20
2015,06,07,15,58,27.20
2015,06,07,15,59,27.20
2015,06,07,16,00,27.20
2015,06,07,16,01,27.20
2015,06,07,16,02,27.10
2015,06,07,16,03,27.00
2015,06,07,16,04,26.90
2015,06,07,16,05,26.80
2015,06,07,16,06,26.80
2015,06,07,16,07,26.80
2015,06,07,16,08,26.80
2015,06,07,16,09,26.80
2015,06,07,16,10,26.80
2015,06,07,16,11,26.80
2015,06,07,16,12,26.70
2015,06,07,16,13,26.70
2015,06,07,16,14,26.70
2015,06,07,16,15,26.70
2015,06,07,16,16,26.70
2015,06,07,16,17,26.60
2015,06,07,16,18,26.60
2015,06,07,16,19,26.50
2015,06,07,16,20,26.40
2015,06,07,16,21,26.40
2015,06,07,16,22,26.40
2015,06,07,16,23,26.40
2015,06,07,16,24,26.40
2015,06,07,16,25,26.40
2015,06,07,16,26,26.30
2015,06,07,16,27,26.30
2015,06,07,16,28,26.20
2015,06,07,16,29,26.20
2015,06,07,16,30,26.10
2015,06,07,16,31,26.10
2015,06,07,16,32,26.10
2015,06,07,16,33,26.10
2015,06,07,16,34,26.10
2015,06,07,16,35,26.10
2015,06,07,16,36,26.10
2015,06,07,16,37,26.20
2015,06,07,16,38,26.30
2015,06,07,16,39,26.30
2015,06,07,16,40,26.30
2015,06,07,16,41,26.30
2015,06,07,16,42,26.30
2015,06,07,16,43,26.30
2015,06,07,16,44,26.30
2015,06,07,16,45,26.30
2015,06,07,16,46,26.30
2015,06,07,16,47,26.30
2015,06,07,16,48,26.30
2015,06,07,16,49,26.30
2015,06,07,16,50,26.30
2015,06,07,16,51,26.30
2015,06,07,16,52,26.30
2015,06,07,16,53,26.30
2015,06,07,16,54,26.30
2015,06,07,16,55,26.30
2015,06,07,16,56,26.40
2015,06,07,16,57,26.50
2015,06,07,16,58,26.60
2015,06,07,16,59,26.60
2015,06,07,17,00,26.50
2015,06,07,17,01,26.50
2015,06,07,17,02,26.50
2015,06,07,17,03,26.40
2015,06,07,17,04,26.40
2015,06,07,17,05,26.50
2015,06,07,17,06,26.50
2015,06,07,17,07,26.50
2015,06,07,17,08,26.50
2015,06,07,17,09,26.40
2015,06,07,17,10,26.40
2015,06,07,17,11,26.40
2015,06,07,17,12,26.40
2015,06,07,17,13,26.50
2015,06,07,17,14,26.50
2015,06,07,17,15,26.60
2015,06,07,17,16,26.70
2015,06,07,17,17,26.70
2015,06,07,17,18,26.70
2015,06,07,17,19,26.70